Find Kosmos-1341

NORAD ID: 13080 Int'l Des: 1982-016 Owner: PVO Country: SU operational
MEOELLIPTICALHEO_ELLIPTICALSEMI_SYNC

实时位置

正在加载3D地球...

关于 Kosmos-1341

正在加载描述...

即将过境

Passes for default location (London). Set your location on the main map for personalized predictions.

高度历史

Loading altitude history...

两行轨道根数

1 13080U 82016A 26105.88023671 .00000712 00000-0 00000+0 0 9997
2 13080 71.7764 4.0789 5773901 309.9934 12.2106 2.00819160233516
Epoch: Apr 15, 2026 • Age: 44 hours

当前状态

高度 31702.6 km
速度 2.43 km/s
星下点 26.55°N, 79.22°E
发射日期 Mar 3, 1982
运行时间 44.1 years
类型 other

技术详情

分类 Payload
质量 1250.00 kg
干质量 1150.00 kg
总质量 1250.00 kg
长度 4.00 m
直径 2.00 m
跨度 5.00 m
形状 Cyl + 2 Pan
制造商 NPOL/KOMET
平台类型 Oko
阶段状态 In Orbit
所有者/国家 PVO/SU

Most Searched